Weather History for Meacham, OR

Change the Weather History Date:

Friday, September 27, 2013

  Actual Average Record
Temperature  
Mean Temperature 40 °F -  
Max Temperature 48 °F 65 °F 79 °F (2000)
Min Temperature 32 °F 29 °F 19 °F (1999)
Degree Days  
Heating Degree Days 25    
Moisture  
Dew Point 37 °F    
Average Humidity 87    
Maximum Humidity 93    
Minimum Humidity 66    
Precipitation  
Precipitation 0.44 in - - ()
Sea Level Pressure  
Sea Level Pressure 30.09 in    
Wind  
Wind Speed 0 mph (North)    
Max Wind Speed 4 mph    
Max Gust Speed -    
Visibility 6 miles    
Events Rain    
Averages and records for this station are not official NWS values.
T = Trace of Precipitation, MM = Missing Value Source: NWS Daily Summary

Daily Weather History Graph

Daily Weather History Graph

Search for Another Location

Airport:

Trip Planner

Search our weather history database for the weather conditions in past years. The results will help you decide how hot, cold, wet, or windy it might be!

Date:

Astronomy

Sep. 27, 2013 Rise Set
Actual Time 6:47 AM PDT 6:40 PM PDT
Civil Twilight 6:17 AM PDT 7:10 PM PDT
Nautical Twilight 5:43 AM PDT 7:44 PM PDT
Astronomical Twilight 5:08 AM PDT 8:19 PM PDT
Moon No Moon Rise 2:38 PM PDT (9/27)
Length of Visible Light 12h 52m
Length of Day
11h 53m
Last Quarter, 44% of the Moon is Illuminated
Sep 27
Last Quarter
Oct 4
New
Oct 11
First Quarter
Oct 18
Full
Oct 26
Last Quarter

Hourly Weather History & Observations

Time (PDT) Temp. Dew Point Humidity Pressure Visibility Wind Dir Wind Speed Gust Speed Precip Events Conditions
12:04 AM 33.8 °F 32.0 °F 93% 30.09 in 3.0 mi Calm Calm - N/A   Overcast
12:56 AM 32.0 °F 30.0 °F 92% 30.13 in 5.0 mi Calm Calm - N/A   Overcast
1:06 AM 32.0 °F 30.2 °F 93% 30.08 in 6.0 mi Calm Calm - N/A   Mostly Cloudy
1:26 AM 32.0 °F 28.4 °F 87% 30.09 in 7.0 mi Calm Calm - N/A   Mostly Cloudy
1:56 AM 33.1 °F 30.9 °F 92% 30.14 in 2.5 mi Calm Calm - N/A   Overcast
2:03 AM 33.8 °F 30.2 °F 87% 30.09 in 6.0 mi Calm Calm - N/A   Overcast
2:56 AM 34.0 °F 32.0 °F 92% 30.13 in 6.0 mi Calm Calm - N/A   Overcast
3:56 AM 35.1 °F 33.1 °F 92% 30.13 in 7.0 mi Calm Calm - N/A   Overcast
4:56 AM 36.0 °F 34.0 °F 93% 30.13 in 6.0 mi Calm Calm - N/A   Overcast
5:56 AM 37.0 °F 35.1 °F 93% 30.12 in 7.0 mi Calm Calm - N/A   Overcast
6:56 AM 37.0 °F 35.1 °F 93% 30.14 in 5.0 mi Calm Calm - N/A   Mostly Cloudy
7:25 AM 35.6 °F 33.8 °F 93% 30.10 in 2.5 mi Calm Calm - N/A   Mostly Cloudy
7:32 AM 35.6 °F 33.8 °F 93% 30.10 in 1.8 mi Calm Calm - N/A   Mostly Cloudy
7:41 AM 35.6 °F 33.8 °F 93% 30.10 in 1.2 mi Calm Calm - N/A   Mostly Cloudy
7:53 AM 37.4 °F 35.6 °F 93% 30.10 in 3.0 mi Calm Calm - N/A   Mostly Cloudy
7:56 AM 37.9 °F 36.0 °F 93% 30.14 in 4.0 mi Calm Calm - N/A   Mostly Cloudy
8:56 AM 43.0 °F 39.9 °F 89% 30.14 in 10.0 mi Calm Calm - N/A   Overcast
9:56 AM 46.9 °F 39.9 °F 77% 30.14 in 10.0 mi Calm Calm - N/A   Partly Cloudy
10:56 AM 46.9 °F 39.0 °F 74% 30.14 in 10.0 mi Calm Calm - N/A   Mostly Cloudy
11:56 AM 46.9 °F 39.0 °F 74% 30.13 in 10.0 mi Variable 3.5 mph - N/A   Overcast
12:05 PM 46.4 °F 37.4 °F 71% 30.10 in 10.0 mi Calm Calm - N/A   Overcast
12:56 PM 46.9 °F 36.0 °F 66% 30.12 in 10.0 mi Calm Calm - 0.00 in Rain Light Rain
1:56 PM 46.9 °F 37.0 °F 68% 30.09 in 10.0 mi Variable 3.5 mph - 0.00 in   Overcast
2:56 PM 46.0 °F 39.9 °F 79% 30.08 in 10.0 mi Calm Calm - 0.01 in Rain Light Rain
3:56 PM 48.0 °F 41.0 °F 77% 30.06 in 10.0 mi Calm Calm - 0.00 in   Overcast
4:56 PM 46.9 °F 39.9 °F 77% 30.06 in 10.0 mi Calm Calm - 0.00 in Rain Light Rain
5:56 PM 44.1 °F 41.0 °F 89% 30.07 in 2.0 mi Calm Calm - 0.11 in Rain Heavy Rain
6:09 PM 44.6 °F 41.0 °F 87% 30.04 in 5.0 mi Calm Calm - 0.02 in Rain Light Rain
6:37 PM 44.6 °F 41.0 °F 87% 30.02 in 8.0 mi Calm Calm - 0.06 in Rain Light Rain
6:56 PM 44.1 °F 41.0 °F 89% 30.06 in 6.0 mi Calm Calm - 0.07 in Rain Light Rain
7:56 PM 44.1 °F 41.0 °F 89% 30.06 in 3.0 mi Calm Calm - 0.08 in Rain Light Rain
8:56 PM 44.1 °F 42.1 °F 93% 30.04 in 5.0 mi Calm Calm - 0.07 in Rain Rain
9:56 PM 45.0 °F 42.1 °F 90% 30.03 in 7.0 mi Calm Calm - 0.09 in Rain Light Rain
10:56 PM 45.0 °F 43.0 °F 93% 30.01 in 10.0 mi Calm Calm - 0.01 in   Overcast
11:56 PM 46.0 °F 43.0 °F 89% 29.99 in 10.0 mi Calm Calm - N/A   Overcast